Regional Weather Roundup
Issued by NWS

Home | Current Version | Previous Version | Graphics & Text | Print | Product List | Glossary Off
Versions: 1 2 3 4 5 6 7 8 9 10 11 12 13 14 15 16 17 18 19 20 21 22 23 24 25 26 27 28 29 30 31 32 33 34 35 36 37 38 39 40 41 42 43 44 45 46 47 48 49 50

000
ASUS43 KLSX 070359
RWRMO

WEATHER SUMMARY FOR MISSOURI
NATIONAL WEATHER SERVICE SPRINGFIELD MO
1100 PM CDT WED MAY 06 2015

NOTE: "FAIR" INDICATES FEW OR NO CLOUDS BELOW 12,000 FEET WITH NO
       SIGNIFICANT WEATHER AND/OR OBSTRUCTIONS TO VISIBILITY.
       CURRENT SKY AND/OR WEATHER CONDITIONS ARE NOT AVAILABLE FOR
       CHILLICOTHE AND FARMINGTON.

MOZ001>031-035>038-043-044-053-054-070500-
...NORTHERN AND WESTERN MISSOURI...

CITY           SKY/WX    TMP DP  RH WIND       PRES   REMARKS
KANSAS CTY INT MOCLDY    71  56  58 S22G30    29.86S
KANSAS C DTWN  PTCLDY    73  55  53 S15G23    29.86R
LEE`S SUMMIT   MOCLDY    71  55  56 S15G26    29.89S
ST JOSEPH      CLOUDY    71  57  61 S14       29.83S
CHILLICOTHE      N/A     71  57  61 S10       29.91R
KIRKSVILLE     CLEAR     67  59  75 SE12      29.95S

$$
MOZ066>068-077>081-088>096-101>105-070500-
...SOUTHWEST MISSOURI...

CITY           SKY/WX    TMP DP  RH WIND       PRES   REMARKS
SPRINGFIELD    PTCLDY    70  55  59 SE16      29.96R
JOPLIN         CLOUDY    72  57  59 SE18G31   29.89F

$$
MOZ032>034-039>042-045>050-055>058-069>072-070500-
...CENTRAL MISSOURI...

CITY           SKY/WX    TMP DP  RH WIND       PRES   REMARKS
COLUMBIA       CLEAR     69  55  60 S10       29.98R
JEFFERSON CITY PTCLDY    71  54  54 SE8       29.97S
ROLLA          CLEAR     68  53  58 SE9       30.00S
SEDALIA        PTCLDY    71  55  56 S13       29.95R
OSAGE BEACH    MOCLDY    70  54  56 S7        29.98R

$$
MOZ051-052-059>065-070500-
...EAST CENTRAL MISSOURI...

CITY           SKY/WX    TMP DP  RH WIND       PRES   REMARKS
ST LOUIS INTL  PTCLDY    77  53  43 S9        30.03S
SPIRIT OF STL  PTCLDY    66  55  67 CALM      30.01S
ST CHARLES     PTCLDY    70  52  52 S8        30.01S

$$
MOZ072>076-082>087-097>100-106>115-070500-
...SOUTH CENTRAL AND SOUTHEAST MISSOURI...

CITY           SKY/WX    TMP DP  RH WIND       PRES   REMARKS
CAPE GIRARDEAU CLEAR     65  54  67 SE6       30.04S
FARMINGTON     PTCLDY    64  52  63 S6        30.08F
POPLAR BLUFF   PTCLDY    68  50  52 SE6       30.03S
WEST PLAINS    PTCLDY    65  55  70 SE3       30.04S

$$


USA.gov is the U.S. government's official web portal to all federal, state and local government web resources and services.